QPF
0.07 0.08 0.08 0.08 0.08 0.08 0.08 0.07 0.07 0.06 0.05 0.05 0.06 0.05 0.04 0.03 0.03 0.04 0.04 0.04 0.04 0.04 0.04 0.03 0.03 0.02 0.03 0.03 0.04 0.04 0.05 0.07 0.08 0.07 0.06 0.05 0.05 0.06 0.06 0.06 0.05 0.04 0.03
0.06 0.07 0.08 0.07 0.07 0.07 0.06 0.06 0.08 0.08 0.06 0.06 0.06 0.05 0.04 0.03 0.03 0.04 0.04 0.03 0.03 0.03 0.03 0.03 0.03 0.02 0.03 0.03 0.04 0.04 0.04 0.05 0.06 0.06 0.05 0.05 0.05 0.07 0.07 0.06 0.04 0.03 0.03
0.06 0.06 0.07 0.08 0.09 0.09 0.07 0.07 0.08 0.08 0.05 0.04 0.04 0.04 0.03 0.03 0.03 0.03 0.03 0.03 0.03 0.03 0.03 0.03 0.03 0.03 0.03 0.04 0.04 0.04 0.05 0.04 0.05 0.05 0.03 0.03 0.05 0.06 0.06 0.05 0.04 0.03 0.03
0.03 0.04 0.05 0.07 0.09 0.10 0.08 0.07 0.07 0.06 0.05 0.04 0.04 0.03 0.03 0.02 0.02 0.02 0.02 0.02 0.02 0.03 0.03 0.03 0.02 0.02 0.03 0.03 0.03 0.05 0.06 0.05 0.05 0.04 0.04 0.04 0.03 0.04 0.04 0.04 0.04 0.03 0.03
0.03 0.03 0.03 0.05 0.06 0.07 0.07 0.07 0.06 0.05 0.05 0.03 0.04 0.03 0.02 0.01 0.01 0.01 0.01 0.02 0.02 0.03 0.04 0.03 0.02 0.01 0.01 0.01 0.01 0.02 0.04 0.05 0.04 0.04 0.04 0.05 0.04 0.04 0.03 0.03 0.04 0.04 0.05
0.03 0.03 0.04 0.06 0.07 0.07 0.07 0.06 0.06 0.06 0.05 0.04 0.04 0.03 0.03 0.01 0.00 0.00 0.01 0.02 0.03 0.04 0.04 0.04 0.03 0.02 0.02 0.01 0.01 0.01 0.02 0.03 0.03 0.05 0.05 0.05 0.04 0.04 0.04 0.04 0.05 0.05 0.06
0.02 0.02 0.03 0.04 0.05 0.06 0.06 0.06 0.07 0.08 0.07 0.06 0.05 0.04 0.03 0.03 0.01 0.00 0.01 0.02 0.04 0.04 0.05 0.05 0.03 0.02 0.02 0.03 0.03 0.02 0.02 0.01 0.02 0.04 0.06 0.05 0.04 0.05 0.05 0.05 0.05 0.06 0.06
0.02 0.02 0.02 0.03 0.03 0.04 0.05 0.06 0.08 0.08 0.09 0.08 0.06 0.05 0.05 0.03 0.01 0.00 0.01 0.03 0.06 0.06 0.05 0.05 0.05 0.04 0.03 0.03 0.04 0.04 0.05 0.04 0.04 0.03 0.04 0.04 0.04 0.04 0.05 0.05 0.04 0.04 0.04
0.02 0.02 0.03 0.03 0.04 0.05 0.06 0.07 0.08 0.08 0.08 0.07 0.06 0.06 0.07 0.05 0.02 0.01 0.01 0.04 0.07 0.06 0.04 0.02 0.03 0.03 0.02 0.02 0.03 0.05 0.05 0.05 0.03 0.02 0.02 0.02 0.01 0.02 0.03 0.04 0.03 0.03 0.04
0.03 0.03 0.03 0.03 0.04 0.04 0.04 0.05 0.06 0.07 0.08 0.07 0.06 0.07 0.07 0.06 0.03 0.01 0.01 0.05 0.07 0.07 0.05 0.04 0.02 0.01 0.02 0.02 0.03 0.04 0.05 0.05 0.04 0.03 0.02 0.02 0.01 0.02 0.02 0.03 0.04 0.04 0.05
0.05 0.05 0.05 0.04 0.04 0.05 0.05 0.05 0.06 0.07 0.08 0.08 0.07 0.07 0.06 0.05 0.03 0.01 0.01 0.03 0.05 0.06 0.05 0.04 0.02 0.01 0.01 0.01 0.01 0.03 0.03 0.02 0.04 0.04 0.04 0.03 0.03 0.04 0.03 0.03 0.04 0.04 0.05
0.05 0.07 0.07 0.06 0.05 0.05 0.07 0.08 0.08 0.09 0.08 0.07 0.07 0.06 0.06 0.04 0.02 0.01 0.01 0.01 0.02 0.04 0.03 0.02 0.01 0.00 0.00 0.00 0.01 0.01 0.01 0.02 0.03 0.04 0.04 0.04 0.04 0.04 0.03 0.03 0.04 0.04 0.05
0.05 0.04 0.04 0.03 0.04 0.05 0.06 0.07 0.06 0.05 0.05 0.04 0.04 0.03 0.03 0.03 0.02 0.01 0.00 0.01 0.01 0.02 0.02 0.01 0.00 0.00 0.01 0.01 0.01 0.01 0.02 0.03 0.04 0.04 0.05 0.05 0.05 0.04 0.04 0.04 0.04 0.04 0.04
0.05 0.04 0.02 0.02 0.03 0.03 0.03 0.03 0.03 0.03 0.04 0.04 0.03 0.03 0.02 0.02 0.03 0.02 0.01 0.01 0.01 0.02 0.02 0.01 0.01 0.01 0.01 0.02 0.02 0.01 0.02 0.03 0.04 0.04 0.05 0.07 0.07 0.05 0.05 0.05 0.04 0.04 0.04
0.05 0.04 0.03 0.03 0.03 0.02 0.02 0.02 0.02 0.02 0.02 0.02 0.02 0.02 0.02 0.02 0.01 0.00 0.01 0.01 0.02 0.01 0.02 0.03 0.04 0.04 0.04 0.04 0.04 0.04 0.04 0.04 0.04 0.04 0.05 0.06 0.07 0.06 0.05 0.05 0.05 0.06 0.05
0.03 0.04 0.04 0.03 0.03 0.02 0.02 0.01 0.01 0.01 0.01 0.01 0.00 0.00 0.00 0.00 0.00 0.00 0.00 0.00 0.00 0.01 0.01 0.03 0.04 0.04 0.04 0.04 0.03 0.03 0.04 0.04 0.04 0.04 0.05 0.06 0.07 0.07 0.06 0.05 0.05 0.06 0.05
0.03 0.03 0.03 0.02 0.02 0.02 0.02 0.02 0.02 0.01 0.01 0.00 0.00 0.00 0.00 0.00 0.00 0.00 0.00 0.00 0.00 0.00 0.01 0.02 0.03 0.03 0.03 0.03 0.02 0.02 0.02 0.02 0.03 0.04 0.04 0.04 0.05 0.05 0.05 0.04 0.04 0.05 0.05
0.01 0.01 0.01 0.01 0.01 0.01 0.01 0.02 0.02 0.01 0.02 0.02 0.01 0.00 0.00 0.00 0.00 0.00 0.00 0.00 0.00 0.00 0.01 0.01 0.01 0.01 0.01 0.01 0.02 0.02 0.01 0.01 0.02 0.02 0.03 0.04 0.03 0.03 0.03 0.03 0.03 0.04 0.05
0.02 0.01 0.01 0.01 0.00 0.00 0.00 0.00 0.01 0.01 0.01 0.01 0.01 0.01 0.00 0.00 0.00 0.00 0.00 0.00 0.00 0.01 0.01 0.01 0.01 0.01 0.01 0.01 0.02 0.02 0.02 0.02 0.02 0.02 0.03 0.03 0.03 0.03 0.02 0.02 0.02 0.03 0.04
0.01 0.01 0.01 0.00 0.00 0.00 0.00 0.00 0.01 0.01 0.01 0.01 0.01 0.01 0.01 0.01 0.01 0.01 0.01 0.01 0.01 0.01 0.01 0.01 0.00 0.00 0.00 0.01 0.02 0.02 0.02 0.03 0.02 0.02 0.02 0.02 0.02 0.02 0.02 0.02 0.02 0.03 0.03
0.00 0.00 0.00 0.00 0.00 0.00 0.00 0.01 0.01 0.02 0.01 0.01 0.01 0.00 0.01 0.01 0.02 0.03 0.03 0.02 0.02 0.02 0.02 0.01 0.00 0.00 0.01 0.01 0.01 0.01 0.01 0.02 0.03 0.02 0.01 0.02 0.03 0.03 0.03 0.03 0.04 0.03 0.04
0.00 0.00 0.00 0.00 0.00 0.00 0.00 0.01 0.01 0.02 0.02 0.02 0.02 0.01 0.01 0.02 0.03 0.03 0.04 0.04 0.05 0.04 0.03 0.03 0.02 0.01 0.00 0.01 0.01 0.01 0.01 0.01 0.01 0.02 0.03 0.03 0.03 0.04 0.05 0.05 0.04 0.04 0.04
0.00 0.00 0.00 0.00 0.00 0.00 0.00 0.01 0.01 0.01 0.02 0.02 0.02 0.02 0.02 0.03 0.04 0.04 0.05 0.06 0.05 0.05 0.05 0.06 0.05 0.04 0.02 0.01 0.01 0.01 0.01 0.01 0.01 0.01 0.02 0.02 0.04 0.05 0.05 0.04 0.03 0.03 0.03
0.00 0.00 0.00 0.00 0.00 0.00 0.00 0.00 0.01 0.01 0.01 0.02 0.03 0.03 0.03 0.04 0.04 0.04 0.05 0.04 0.04 0.05 0.06 0.06 0.06 0.05 0.04 0.03 0.03 0.03 0.01 0.01 0.00 0.01 0.01 0.01 0.02 0.03 0.04 0.04 0.03 0.03 0.03
0.00 0.00 0.00 0.00 0.00 0.00 0.00 0.00 0.01 0.01 0.02 0.02 0.03 0.03 0.03 0.03 0.04 0.05 0.06 0.07 0.06 0.06 0.06 0.05 0.05 0.04 0.03 0.03 0.03 0.03 0.03 0.02 0.01 0.01 0.01 0.01 0.01 0.02 0.02 0.03 0.03 0.03 0.03
0.00 0.00 0.00 0.00 0.00 0.00 0.00 0.00 0.01 0.01 0.01 0.02 0.02 0.02 0.03 0.04 0.05 0.05 0.06 0.06 0.05 0.04 0.05 0.06 0.05 0.04 0.04 0.05 0.05 0.05 0.04 0.03 0.02 0.01 0.01 0.01 0.01 0.02 0.02 0.03 0.03 0.03 0.03
MSLP
1016.48 1016.39 1016.31 1016.21 1016.07 1015.88 1015.65 1015.38 1015.10 1014.84 1014.60 1014.39 1014.20 1014.03 1013.85 1013.66 1013.45 1013.23 1013.03 1012.85 1012.73 1012.68 1012.72 1012.83 1012.99 1013.19 1013.40 1013.59 1013.76 1013.90 1014.03 1014.18 1014.35 1014.59 1014.89 1015.27 1015.68 1016.12 1016.55 1016.92 1017.21 1017.40 1017.49
1016.51 1016.39 1016.30 1016.21 1016.10 1015.95 1015.76 1015.55 1015.32 1015.09 1014.89 1014.70 1014.53 1014.38 1014.22 1014.05 1013.86 1013.67 1013.48 1013.30 1013.16 1013.08 1013.06 1013.09 1013.17 1013.29 1013.42 1013.55 1013.67 1013.79 1013.92 1014.07 1014.26 1014.50 1014.80 1015.15 1015.54 1015.94 1016.33 1016.67 1016.94 1017.13 1017.25
1016.40 1016.27 1016.17 1016.08 1015.99 1015.88 1015.74 1015.59 1015.42 1015.26 1015.11 1014.97 1014.85 1014.72 1014.60 1014.45 1014.29 1014.11 1013.93 1013.75 1013.60 1013.48 1013.40 1013.37 1013.39 1013.43 1013.50 1013.59 1013.68 1013.78 1013.89 1014.03 1014.21 1014.44 1014.71 1015.02 1015.36 1015.70 1016.02 1016.31 1016.55 1016.73 1016.85
1016.27 1016.12 1016.01 1015.93 1015.85 1015.77 1015.68 1015.58 1015.47 1015.37 1015.28 1015.20 1015.12 1015.04 1014.95 1014.83 1014.69 1014.53 1014.34 1014.16 1013.98 1013.83 1013.71 1013.64 1013.60 1013.60 1013.62 1013.67 1013.73 1013.81 1013.91 1014.04 1014.19 1014.38 1014.61 1014.86 1015.13 1015.40 1015.66 1015.88 1016.07 1016.22 1016.34
1016.19 1016.03 1015.92 1015.83 1015.75 1015.68 1015.62 1015.56 1015.50 1015.45 1015.41 1015.38 1015.34 1015.30 1015.24 1015.14 1015.02 1014.86 1014.67 1014.47 1014.28 1014.10 1013.96 1013.85 1013.77 1013.74 1013.74 1013.77 1013.81 1013.87 1013.96 1014.05 1014.18 1014.32 1014.49 1014.67 1014.87 1015.07 1015.26 1015.42 1015.56 1015.68 1015.77
1016.18 1016.02 1015.90 1015.80 1015.72 1015.65 1015.59 1015.54 1015.51 1015.49 1015.48 1015.49 1015.48 1015.47 1015.43 1015.35 1015.23 1015.07 1014.89 1014.68 1014.47 1014.28 1014.11 1013.98 1013.89 1013.85 1013.83 1013.84 1013.88 1013.93 1013.99 1014.06 1014.14 1014.24 1014.35 1014.48 1014.60 1014.74 1014.86 1014.97 1015.07 1015.16 1015.23
1016.22 1016.08 1015.95 1015.84 1015.75 1015.66 1015.59 1015.54 1015.50 1015.49 1015.50 1015.51 1015.53 1015.53 1015.50 1015.44 1015.33 1015.18 1014.99 1014.78 1014.57 1014.37 1014.19 1014.06 1013.96 1013.90 1013.88 1013.89 1013.91 1013.95 1013.99 1014.04 1014.09 1014.14 1014.21 1014.28 1014.35 1014.43 1014.51 1014.58 1014.65 1014.71 1014.76
1016.27 1016.15 1016.03 1015.91 1015.80 1015.69 1015.60 1015.52 1015.47 1015.45 1015.45 1015.47 1015.49 1015.50 1015.49 1015.43 1015.34 1015.19 1015.02 1014.81 1014.60 1014.40 1014.23 1014.09 1013.99 1013.93 1013.90 1013.90 1013.92 1013.94 1013.97 1013.99 1014.01 1014.03 1014.05 1014.08 1014.12 1014.17 1014.22 1014.27 1014.32 1014.36 1014.40
1016.29 1016.20 1016.09 1015.98 1015.85 1015.72 1015.60 1015.50 1015.43 1015.39 1015.37 1015.39 1015.41 1015.43 1015.43 1015.39 1015.31 1015.19 1015.02 1014.84 1014.63 1014.44 1014.26 1014.12 1014.02 1013.95 1013.91 1013.90 1013.90 1013.90 1013.91 1013.91 1013.90 1013.90 1013.90 1013.90 1013.92 1013.95 1013.98 1014.03 1014.07 1014.11 1014.13
1016.28 1016.22 1016.14 1016.03 1015.90 1015.76 1015.62 1015.50 1015.40 1015.34 1015.32 1015.33 1015.35 1015.38 1015.39 1015.38 1015.32 1015.22 1015.08 1014.91 1014.72 1014.53 1014.35 1014.20 1014.07 1013.98 1013.92 1013.88 1013.86 1013.84 1013.82 1013.80 1013.77 1013.75 1013.73 1013.72 1013.73 1013.75 1013.78 1013.83 1013.87 1013.91 1013.93
1016.25 1016.23 1016.17 1016.08 1015.96 1015.82 1015.67 1015.54 1015.43 1015.36 1015.33 1015.33 1015.36 1015.41 1015.44 1015.45 1015.42 1015.35 1015.23 1015.08 1014.90 1014.70 1014.51 1014.33 1014.17 1014.05 1013.94 1013.86 1013.80 1013.75 1013.70 1013.65 1013.60 1013.56 1013.53 1013.52 1013.52 1013.54 1013.58 1013.63 1013.68 1013.72 1013.74
1016.24 1016.25 1016.22 1016.16 1016.05 1015.92 1015.78 1015.64 1015.53 1015.45 1015.42 1015.43 1015.48 1015.54 1015.59 1015.63 1015.63 1015.58 1015.48 1015.34 1015.15 1014.94 1014.72 1014.50 1014.30 1014.11 1013.95 1013.82 1013.71 1013.61 1013.52 1013.45 1013.39 1013.33 1013.30 1013.28 1013.29 1013.31 1013.35 1013.40 1013.46 1013.50 1013.52
1016.29 1016.32 1016.32 1016.27 1016.18 1016.06 1015.93 1015.80 1015.69 1015.63 1015.60 1015.62 1015.67 1015.75 1015.83 1015.88 1015.90 1015.87 1015.78 1015.64 1015.44 1015.20 1014.94 1014.66 1014.40 1014.15 1013.92 1013.72 1013.55 1013.41 1013.29 1013.19 1013.11 1013.05 1013.02 1013.00 1013.01 1013.03 1013.08 1013.13 1013.19 1013.23 1013.25
1016.39 1016.43 1016.43 1016.40 1016.33 1016.22 1016.10 1015.98 1015.88 1015.82 1015.80 1015.83 1015.89 1015.98 1016.06 1016.13 1016.17 1016.14 1016.05 1015.89 1015.67 1015.39 1015.08 1014.75 1014.42 1014.10 1013.80 1013.54 1013.32 1013.13 1012.98 1012.87 1012.78 1012.72 1012.68 1012.67 1012.68 1012.71 1012.75 1012.81 1012.86 1012.91 1012.93
1016.49 1016.53 1016.54 1016.51 1016.44 1016.34 1016.23 1016.12 1016.02 1015.96 1015.95 1015.97 1016.04 1016.12 1016.21 1016.28 1016.31 1016.28 1016.18 1016.00 1015.74 1015.43 1015.07 1014.68 1014.29 1013.91 1013.56 1013.25 1012.99 1012.77 1012.60 1012.48 1012.39 1012.34 1012.31 1012.31 1012.32 1012.35 1012.40 1012.45 1012.49 1012.53 1012.56
1016.55 1016.57 1016.57 1016.53 1016.45 1016.35 1016.24 1016.13 1016.04 1015.97 1015.95 1015.97 1016.02 1016.09 1016.17 1016.23 1016.24 1016.19 1016.07 1015.87 1015.59 1015.24 1014.84 1014.42 1013.98 1013.56 1013.18 1012.84 1012.56 1012.33 1012.17 1012.05 1011.97 1011.94 1011.92 1011.93 1011.95 1011.98 1012.02 1012.06 1012.10 1012.13 1012.15
1016.48 1016.47 1016.45 1016.39 1016.31 1016.20 1016.08 1015.97 1015.87 1015.80 1015.76 1015.76 1015.79 1015.84 1015.90 1015.93 1015.92 1015.85 1015.71 1015.48 1015.18 1014.81 1014.39 1013.95 1013.50 1013.06 1012.67 1012.33 1012.05 1011.84 1011.69 1011.59 1011.54 1011.52 1011.53 1011.55 1011.57 1011.60 1011.63 1011.65 1011.67 1011.68 1011.69
1016.24 1016.21 1016.16 1016.09 1015.99 1015.87 1015.75 1015.63 1015.52 1015.43 1015.38 1015.36 1015.36 1015.38 1015.40 1015.40 1015.36 1015.27 1015.10 1014.86 1014.55 1014.17 1013.75 1013.31 1012.87 1012.45 1012.07 1011.75 1011.50 1011.32 1011.20 1011.13 1011.10 1011.10 1011.12 1011.15 1011.17 1011.19 1011.20 1011.21 1011.20 1011.19 1011.17
1015.83 1015.78 1015.71 1015.62 1015.52 1015.40 1015.27 1015.14 1015.03 1014.93 1014.86 1014.81 1014.78 1014.77 1014.75 1014.72 1014.64 1014.52 1014.33 1014.08 1013.76 1013.39 1012.99 1012.57 1012.15 1011.77 1011.43 1011.15 1010.94 1010.79 1010.70 1010.66 1010.66 1010.67 1010.70 1010.72 1010.74 1010.74 1010.72 1010.70 1010.67 1010.62 1010.57
1015.29 1015.23 1015.15 1015.06 1014.96 1014.84 1014.72 1014.59 1014.48 1014.37 1014.28 1014.21 1014.16 1014.10 1014.05 1013.97 1013.86 1013.71 1013.50 1013.24 1012.92 1012.57 1012.19 1011.80 1011.42 1011.08 1010.78 1010.55 1010.37 1010.26 1010.20 1010.17 1010.18 1010.20 1010.22 1010.22 1010.22 1010.19 1010.15 1010.09 1010.03 1009.95 1009.86
1014.70 1014.63 1014.56 1014.47 1014.38 1014.28 1014.17 1014.06 1013.95 1013.84 1013.74 1013.65 1013.57 1013.48 1013.39 1013.27 1013.12 1012.94 1012.71 1012.43 1012.12 1011.78 1011.42 1011.06 1010.72 1010.42 1010.16 1009.96 1009.82 1009.72 1009.67 1009.65 1009.65 1009.65 1009.65 1009.63 1009.59 1009.53 1009.45 1009.37 1009.27 1009.16 1009.05
1014.13 1014.07 1014.00 1013.93 1013.86 1013.78 1013.69 1013.60 1013.50 1013.40 1013.30 1013.19 1013.08 1012.97 1012.83 1012.68 1012.50 1012.28 1012.02 1011.73 1011.42 1011.08 1010.74 1010.40 1010.09 1009.81 1009.58 1009.40 1009.26 1009.17 1009.11 1009.07 1009.04 1009.01 1008.97 1008.91 1008.83 1008.74 1008.63 1008.52 1008.40 1008.27 1008.15
1013.62 1013.57 1013.52 1013.47 1013.42 1013.36 1013.29 1013.22 1013.14 1013.05 1012.95 1012.84 1012.71 1012.57 1012.41 1012.23 1012.01 1011.76 1011.48 1011.17 1010.84 1010.50 1010.16 1009.83 1009.53 1009.26 1009.04 1008.85 1008.71 1008.59 1008.51 1008.43 1008.36 1008.28 1008.19 1008.09 1007.97 1007.84 1007.71 1007.57 1007.44 1007.32 1007.19
1013.18 1013.13 1013.10 1013.06 1013.03 1012.99 1012.94 1012.89 1012.82 1012.74 1012.65 1012.54 1012.41 1012.26 1012.08 1011.87 1011.63 1011.36 1011.06 1010.73 1010.39 1010.04 1009.69 1009.36 1009.05 1008.77 1008.53 1008.32 1008.15 1008.01 1007.88 1007.75 1007.63 1007.50 1007.36 1007.22 1007.06 1006.90 1006.75 1006.61 1006.48 1006.36 1006.25
1012.77 1012.72 1012.68 1012.65 1012.63 1012.60 1012.56 1012.52 1012.47 1012.41 1012.33 1012.23 1012.11 1011.96 1011.78 1011.57 1011.32 1011.04 1010.73 1010.39 1010.03 1009.67 1009.31 1008.96 1008.64 1008.34 1008.08 1007.84 1007.63 1007.45 1007.27 1007.10 1006.92 1006.75 1006.56 1006.37 1006.19 1006.01 1005.84 1005.70 1005.57 1005.47 1005.39
1012.32 1012.26 1012.22 1012.18 1012.15 1012.12 1012.09 1012.06 1012.03 1011.98 1011.93 1011.85 1011.75 1011.63 1011.46 1011.27 1011.03 1010.76 1010.45 1010.12 1009.76 1009.39 1009.02 1008.67 1008.32 1008.01 1007.71 1007.45 1007.20 1006.97 1006.75 1006.54 1006.32 1006.10 1005.88 1005.65 1005.44 1005.24 1005.07 1004.91 1004.79 1004.70 1004.64
Thickness
5642 5639 5636 5633 5631 5630 5627 5624 5622 5619 5617 5615 5613 5612 5610 5609 5608 5608 5607 5607 5606 5606 5607 5607 5607 5608 5609 5610 5612 5614 5615 5617 5616 5619 5622 5624 5625 5626 5626 5628 5630 5631 5632
5636 5633 5629 5626 5624 5621 5619 5617 5615 5612 5610 5608 5606 5604 5603 5602 5601 5600 5599 5599 5598 5598 5598 5599 5600 5601 5602 5603 5603 5605 5607 5609 5609 5609 5612 5614 5616 5618 5619 5620 5623 5625 5626
5630 5625 5621 5618 5615 5612 5610 5608 5606 5604 5602 5601 5599 5597 5596 5595 5593 5592 5592 5592 5591 5590 5590 5591 5592 5592 5593 5594 5596 5597 5599 5602 5603 5603 5604 5607 5609 5610 5612 5613 5616 5618 5620
5623 5619 5614 5611 5608 5605 5603 5600 5598 5597 5595 5594 5593 5591 5590 5588 5587 5585 5585 5584 5584 5584 5584 5584 5584 5585 5585 5586 5588 5590 5592 5594 5596 5597 5598 5599 5602 5603 5605 5606 5608 5611 5613
5616 5612 5608 5605 5602 5600 5597 5594 5592 5591 5589 5588 5586 5585 5583 5581 5579 5577 5577 5578 5577 5577 5577 5577 5578 5578 5578 5579 5581 5582 5584 5586 5588 5590 5591 5593 5595 5596 5597 5600 5602 5604 5606
5610 5606 5603 5600 5597 5594 5592 5589 5587 5585 5583 5581 5580 5579 5577 5575 5571 5569 5569 5570 5571 5571 5571 5572 5572 5572 5573 5573 5574 5575 5577 5578 5580 5582 5585 5586 5588 5590 5593 5595 5596 5598 5599
5606 5602 5598 5595 5593 5590 5588 5585 5582 5579 5578 5576 5575 5573 5571 5568 5566 5565 5565 5564 5565 5566 5566 5567 5568 5569 5567 5567 5568 5570 5571 5572 5573 5575 5577 5580 5583 5585 5587 5588 5590 5591 5594
5602 5598 5595 5592 5589 5586 5583 5580 5577 5576 5574 5572 5571 5569 5567 5565 5563 5562 5560 5561 5562 5563 5563 5563 5562 5562 5561 5560 5563 5565 5566 5568 5569 5571 5573 5575 5577 5579 5581 5583 5584 5586 5588
5599 5595 5592 5589 5586 5583 5580 5577 5574 5573 5571 5570 5569 5568 5565 5563 5560 5559 5557 5558 5559 5559 5560 5559 5558 5557 5554 5555 5557 5558 5559 5561 5563 5565 5567 5569 5571 5573 5574 5576 5578 5579 5581
5596 5593 5589 5586 5583 5579 5577 5574 5572 5571 5569 5569 5568 5567 5565 5562 5559 5557 5555 5556 5556 5556 5556 5555 5553 5552 5550 5550 5551 5553 5554 5556 5559 5561 5563 5564 5566 5568 5569 5570 5573 5573 5575
5594 5590 5587 5584 5580 5578 5575 5573 5571 5569 5568 5567 5566 5565 5563 5561 5558 5556 5554 5552 5552 5552 5552 5552 5550 5548 5547 5547 5547 5548 5549 5550 5554 5557 5559 5562 5564 5566 5567 5568 5569 5570 5572
5593 5588 5585 5582 5579 5577 5574 5571 5570 5568 5567 5566 5564 5563 5562 5561 5558 5556 5553 5550 5549 5548 5548 5549 5548 5546 5545 5545 5546 5547 5547 5548 5551 5553 5556 5558 5560 5563 5565 5567 5568 5568 5570
5591 5587 5583 5580 5578 5575 5572 5570 5569 5568 5566 5566 5564 5563 5561 5561 5558 5555 5552 5550 5548 5546 5546 5546 5545 5545 5545 5546 5547 5547 5547 5548 5550 5551 5553 5556 5559 5562 5563 5564 5565 5566 5567
5590 5586 5583 5580 5578 5576 5574 5572 5570 5568 5566 5565 5564 5562 5561 5560 5557 5555 5553 5551 5548 5546 5546 5546 5546 5547 5546 5547 5548 5549 5549 5550 5551 5551 5553 5555 5558 5560 5560 5562 5562 5563 5564
5590 5587 5584 5582 5580 5577 5575 5572 5571 5568 5566 5564 5563 5563 5560 5558 5555 5551 5549 5550 5548 5545 5542 5545 5548 5549 5550 5551 5552 5553 5553 5552 5552 5553 5554 5554 5556 5558 5559 5561 5561 5562 5562
5590 5587 5586 5584 5582 5580 5578 5575 5572 5570 5567 5565 5563 5560 5559 5557 5554 5552 5550 5548 5546 5544 5543 5546 5549 5551 5553 5554 5555 5556 5556 5555 5556 5556 5555 5556 5557 5558 5559 5561 5562 5562 5562
5593 5590 5588 5586 5584 5582 5580 5577 5575 5572 5570 5567 5565 5562 5559 5558 5556 5554 5552 5550 5548 5545 5546 5550 5552 5554 5556 5557 5558 5557 5557 5558 5558 5557 5557 5557 5558 5560 5560 5561 5561 5562 5563
5596 5592 5590 5588 5586 5585 5583 5581 5580 5578 5575 5572 5570 5566 5563 5561 5559 5557 5553 5550 5553 5553 5553 5555 5556 5558 5560 5560 5560 5560 5560 5559 5559 5559 5559 5559 5559 5560 5561 5561 5562 5563 5564
5598 5596 5593 5591 5589 5588 5587 5585 5583 5581 5579 5577 5576 5572 5569 5566 5563 5560 5555 5554 5558 5560 5562 5562 5562 5563 5563 5563 5562 5562 5561 5560 5560 5560 5560 5560 5561 5561 5561 5562 5563 5563 5563
5600 5597 5594 5593 5593 5592 5591 5589 5587 5585 5583 5581 5579 5578 5575 5570 5568 5567 5563 5562 5562 5563 5565 5565 5566 5566 5566 5565 5565 5564 5563 5561 5561 5561 5561 5561 5561 5561 5561 5562 5563 5563 5564
5606 5603 5598 5596 5596 5595 5593 5591 5589 5588 5586 5585 5583 5583 5578 5575 5574 5573 5571 5568 5567 5567 5568 5568 5568 5568 5568 5568 5567 5566 5565 5563 5562 5562 5562 5561 5561 5561 5561 5562 5563 5563 5564
5610 5608 5605 5602 5601 5598 5595 5593 5592 5590 5588 5587 5587 5585 5581 5578 5578 5577 5576 5574 5572 5570 5570 5568 5568 5568 5568 5568 5567 5566 5565 5564 5563 5561 5560 5560 5560 5560 5560 5560 5561 5562 5562
5612 5610 5608 5606 5603 5599 5597 5596 5594 5592 5591 5590 5589 5587 5584 5581 5579 5578 5576 5575 5573 5572 5571 5570 5568 5568 5567 5567 5566 5564 5563 5562 5561 5560 5558 5558 5558 5558 5557 5557 5558 5559 5560
5617 5614 5611 5608 5605 5602 5599 5597 5595 5594 5593 5591 5588 5586 5584 5581 5579 5578 5577 5576 5574 5572 5571 5570 5569 5568 5567 5566 5564 5562 5560 5558 5557 5557 5556 5554 5554 5554 5555 5555 5555 5556 5556
5620 5617 5614 5610 5607 5603 5601 5599 5596 5594 5592 5590 5588 5585 5583 5581 5579 5578 5576 5575 5573 5572 5571 5570 5568 5566 5564 5563 5561 5559 5556 5554 5553 5552 5551 5551 5551 5550 5550 5551 5551 5551 5551
5624 5621 5617 5613 5608 5605 5602 5599 5596 5593 5591 5589 5587 5585 5583 5581 5578 5576 5574 5572 5571 5570 5569 5567 5566 5564 5561 5560 5557 5555 5553 5551 5549 5547 5546 5546 5546 5546 5546 5545 5546 5546 5547